Regional Weather Roundup
Issued by NWS Cleveland, OH

Home | Current Version | Previous Version | Graphics & Text | Print | Product List | Glossary On
Versions: 1 2 3 4 5 6 7 8 9 10 11 12 13 14 15 16 17 18 19 20 21 22 23 24 25 26 27 28 29 30 31 32 33 34 35 36 37 38 39 40 41 42 43 44 45 46 47 48 49 50
000
ASUS41 KCLE 291202
RWRCLE
OHIO REGIONAL WEATHER ROUNDUP
NATIONAL WEATHER SERVICE CLEVELAND, OH
800 AM EDT MON MAY 29 2017

NOTE: "FAIR" INDICATES FEW OR NO CLOUDS BELOW 12,000 FEET WITH NO
SIGNIFICANT WEATHER AND/OR OBSTRUCTIONS TO VISIBILITY.

OHZ001>008-015>018-024>027-034-035-043-044-291300-
   NORTHWEST OHIO

CITY           SKY/WX    TMP DP  RH WIND       PRES   REMARKS
DEFIANCE       PTSUNNY   59  57  93 S6        29.85R
FINDLAY        SUNNY     64  57  78 SW7       29.86R
TOLEDO EXPRESS SUNNY     61  58  90 SW8       29.84R
TOLEDO EXEC    SUNNY     62  60  93 SW10      29.85R
LIMA           SUNNY     62  58  86 SW8       29.88R
$$

OHZ009>014-019>023-028>033-038-089-291300-
   NORTHEAST OHIO

CITY           SKY/WX    TMP DP  RH WIND       PRES   REMARKS
CLE-HOPKINS    MOSUNNY   64  58  80 SW8       29.85R
CLE-LAKEFRONT  MOSUNNY   64  56  75 SW12      29.82R
CUY CO. ARPT   SUNNY     64  59  82 SW9       29.84R
LORAIN-ELYRIA  SUNNY     61  53  75 SW10      29.85R
ASHTABULA      SUNNY     63  60  90 W9        29.83R
AKRON-CANTON   MOSUNNY   61  57  87 SW6       29.87R
WOOSTER        SUNNY     61  57  87 SW7       29.88R
MANSFIELD      SUNNY     63  60  90 SW13      29.89R
YOUNGSTOWN     PTSUNNY   61  58  90 SW10      29.85R
$$

OHZ042-051>053-060>062-070>072-077>081-291300-
  SOUTHWEST OHIO

CITY           SKY/WX    TMP DP  RH WIND       PRES   REMARKS
CINC-COVINGTON SUNNY     63  63 100 SW8       29.94R FOG
CINC-LUNKEN    MOSUNNY   63  63 100 CALM      29.94R FOG
HAMILTON       SUNNY     64  64 100 VRB3      29.93F FOG
DAYTON         MOSUNNY   62  60  93 SW8       29.92R
WRIGHT-PAT AFB MOSUNNY   63  63 100 SW8       29.91R
DAYTON GENERAL PTSUNNY   62  61  96 SW5       29.92S FOG
WILMINGTON     SUNNY     64  63  96 W9        29.92S
$$

OHZ036-037-039>041-045>050-054>059-063>069-073>076-082>088-291300-
  CENTRAL AND SOUTHEAST OHIO

CITY           SKY/WX    TMP DP  RH WIND       PRES   REMARKS
COLUMBUS       MOSUNNY   64  62  93 SW6       29.91R
OSU AIRPORT    SUNNY     64  62  93 W9        29.91R
BOLTON FIELD   MOSUNNY   63  61  94 W8        29.92R
RICKENBACK AFB PTSUNNY   64  62  94 W10       29.92R
NEWARK         PTSUNNY   64  61  90 W7        29.91R
MARION         SUNNY     63  59  87 W9        29.90R
LANCASTER      SUNNY     67  62  84 W9        29.92R
ZANESVILLE     SUNNY     64  61  90 SW7       29.90R
NEW PHILLY     NOT AVBL
$$



USA.gov is the U.S. government's official web portal to all federal, state and local government web resources and services.